Location: Anumalkud?ru
(16.4847°N, 80.6636°E)
Time: 10:03:45
(UTC+00:00)

Cosmos 468 Rocket - Pass Details

Date: 11 April 2026
Orbit: 740 x 774 km, 74.0° (Epoch: 11 May)

Event Time Altitude Azimuth Distance (km) Brightness Sun altitude
Exits shadow 23:17:25 23° 226° (SW) 1,579 5.1 -16.6°
Maximum altitude 23:20:16 43° 285° (WNW) 1,055 4.3 -15.9°
Drops below altitude 10° 23:25:14 10° 357° (N) 2,303 6.6 -14.8°
Sets 23:27:43 0° 4° (N) 3,234 7.5 -14.2°
